User: anonymous   Login
Location: Marineo
(37.9500°N, 13.4170°E)
Time: 18:46:26
(UTC+02:00)
Language:

ISS - Orbit

View from above orbital plane
View from above orbital plane
View from above satellite
View from above satellite

Ground track
Ground track

The orbit data is extracted from the following two-line orbital elements,

1 25544U 98067A   20097.22638200  .00016717  00000-0  10270-3 0  9031
2 25544  51.6418 344.5650 0003878  89.4772 270.6822 15.48679022 20853
Epoch (UTC): 06 April 2020 05:25:59
Eccentricity: 0.0003878
inclination: 51.6418°
perigee height: 418 km
apogee height: 423 km
right ascension of ascending node: 344.5650°
argument of perigee: 89.4772°
revolutions per day: 15.48679022
mean anomaly at epoch: 270.6822°
orbit number at epoch: 2085

The dashed part of the orbit path shows where the satellite is in the earth's shadow,  

DLR